Location: Kailua
(21.4020°N, 157.7390°W)
Time: 14:45:43
(UTC-10:00)

Daily predictions for brighter satellites

Satellite Brightness Start Highest point End
(mag) Time Altitude Azimuth Time Altitude Azimuth Time Altitude Azimuth
ATLAS 5 CENTAUR R/B 3.5 17:47:50 10° SW 17:52:27 41° SE 18:11:32 10° E
Cosmos 1484 Rocket 4.0 18:07:43 10° ESE 18:10:32 20° ENE 18:13:20 10° NNE
Cosmos 2366 rocket 4.1 18:04:39 10° N 18:10:52 58° E 18:16:59 10° SSE
Cosmos 1959 Rocket 4.5 18:08:07 10° N 18:14:19 75° E 18:20:35 10° S
ATLAS 2AS CENTAUR R/B 3.4 18:07:18 10° N 18:14:28 38° ENE 18:21:05 10° SE
Cosmos 2218 Rocket 4.0 18:09:33 10° N 18:15:47 77° E 18:21:56 10° S
MOS 1 4.4 18:13:46 10° SSE 18:19:27 90° WSW 18:25:07 10° NNW
Cosmos 2251 Rocket 3.7 18:15:03 10° N 18:20:12 50° ENE 18:25:18 10° SSE
COSMOS 2406 3.8 18:17:33 10° NNW 18:23:13 66° WSW 18:28:53 10° S
GPS 2-15 Rocket1 3.4 18:19:50 10° W 18:24:35 69° S 18:29:15 10° ESE
Meteor 1-12 Rocket 4.3 18:20:29 10° N 18:26:16 63° E 18:32:08 10° SSE
GPS 2-18 Rocket1 3.8 18:25:03 10° W 18:28:54 54° S 18:32:51 10° ESE
Cosmos 1500 3.7 18:27:48 10° NNE 18:31:23 37° E 18:34:59 10° SSE
Meteor 1-13 Rocket 4.2 18:27:40 10° S 18:33:12 67° E 18:38:51 10° NNE
Cosmos 1544 Rocket 4.3 18:29:26 10° NNW 18:33:48 58° W 18:38:10 10° S
Intercosmos 25 4.4 18:31:56 10° NE 18:34:27 20° E 18:37:25 10° SE
COSMO-SKYMED 1 2.8 18:30:46 10° N 18:35:06 75° WNW 18:39:24 10° SSW
Meteor 1-28 Rocket 3.3 18:32:23 10° NNE 18:36:08 54° E 18:39:48 10° S
DMSP B5D1-3 4.5 18:31:40 10° NNE 18:36:48 77° ESE 18:41:54 10° S
BREEZE-M DEB (TANK) 4.2 18:22:32 10° NW 18:39:23 82° NE 18:43:17 10° SE
Cosmos 2082 Rocket 3.6 18:36:29 10° NNE 18:39:53 16° ENE 18:40:11 16° ENE
Hubble Space Telescope 1.7 18:38:38 10° W 18:42:38 48° SSW 18:46:38 10° SE
GPS 2-14 Rocket1 2.7 18:40:22 10° W 18:44:23 82° S 18:47:11 20° E
Meteor 2-21 4.4 18:44:38 10° N 18:50:45 67° E 18:56:47 10° SSE
YAOGAN 1 4.3 18:46:53 10° SSW 18:50:50 35° W 18:54:48 10° NNW
GPS 2-17 Rocket1 3.3 18:48:23 10° WSW 18:53:05 66° S 18:55:49 24° E
Cosmos 1025 Rocket 3.1 18:50:04 10° S 18:54:18 56° E 18:58:22 11° NNE
Nadezhda 3 Rocket 4.3 18:50:52 10° SSW 18:56:58 68° W 19:03:09 10° N
Cosmos 2056 Rocket 3.6 18:52:44 10° S 18:58:01 56° ESE 19:02:03 17° NNE
COSMOS 2487 3.6 18:54:56 10° N 18:59:29 26° ESE 19:01:30 10° SE
Palapa 6 Rocket 3.6 18:52:18 10° W 18:58:50 79° N 19:01:52 27° E
Meteor 2-4 Rocket 3.6 18:53:41 10° S 18:59:05 64° E 19:04:23 10° NNE
Orbus 7S? 3.0 18:55:46 10° SSW 18:59:34 50° SE 19:00:05 42° E
Cosmos 921 Rocket 3.8 18:55:38 10° SSW 18:59:40 49° WNW 19:03:47 10° N
NOSS 7 (H) 4.4 18:56:21 10° SSW 19:00:15 73° ESE 19:01:35 34° NE
Okean 2 3.8 19:01:10 10° SSE 19:05:03 40° E 19:05:43 37° ENE
Cosmos 2369 Rocket 3.5 19:06:49 10° SSE 19:10:04 21° ESE 19:10:04 21° ESE
Cosmos 1624 Rocket 3.9 19:06:37 10° SSW 19:11:48 89° ESE 19:15:44 18° NNE
Meteor 2-14 Rocket 4.3 19:06:25 10° N 19:12:33 74° E 19:18:38 10° S
Cosmos 1371 Rocket 4.4 19:11:00 10° SSW 19:16:15 63° WNW 19:21:24 11° N
SJ-6B 3.4 19:13:29 10° SSE 19:16:02 38° SE 19:16:02 38° SE
Cosmos 1727 Rocket 4.3 19:12:35 10° SSE 19:18:24 42° E 19:19:56 36° ENE
OTV 4 1.9 19:16:01 10° NW 19:17:44 29° NW 19:17:44 29° NW
Cosmos 1340 4.0 19:21:42 10° S 19:23:39 27° SSE 19:23:39 27° SSE
Helios 1B rocket 2.9 19:27:43 45° SSE 19:27:43 45° SSE 19:30:51 10° S
ATLAS 3B CENTAUR R/B 3.4 19:10:03 10° W 19:28:03 58° N 19:31:00 38° NE
Cosmos 1892 Rocket 3.4 19:26:36 10° S 19:30:55 88° E 19:31:23 71° N
FALCON 9 R/B 3.9 19:24:10 10° W 19:42:08 37° NNW 19:44:51 29° NNE
Fermi 4.5 19:39:36 10° WNW 19:42:43 50° W 19:42:43 50° W
Cosmos 1452 Rocket 3.9 19:42:14 10° S 19:46:14 50° SSE 19:46:14 50° SSE
Mugunghwa Rocket 4.4 19:46:56 10° WNW 19:54:46 58° N 19:55:24 56° NNE
Cosmos 1339 Rocket 4.3 19:54:48 10° S 20:00:50 86° SW 20:00:50 86° SW
ATLAS 2AS CENTAUR R/B 4.5 19:58:36 10° NW 20:05:10 32° WSW 20:11:15 10° SSW
Cosmos 1934 Rocket 4.4 19:59:05 10° NNW 20:05:13 61° W 20:11:25 10° S
Cosmos 2082 Rocket 3.4 20:18:39 10° NNW 20:30:03 - S 20:22:26 36° WNW
Aurora 2 Rocket 4.4 20:26:13 10° W 20:35:19 64° NW 20:35:19 64° NW
Cosmos 2369 Rocket 4.4 20:49:50 10° SW 20:51:56 20° WSW 20:51:56 20° WSW
